Showing default

LEGION 1, 59625

Orbit data source: Space-Track

LEGION 1, 59625 is a payload satellite owned by Maxar Intel (US) in SSO that was launched on Thu, 02 May 2024 UTC via an FALCON 9 launch vehicle from the Air Force Western Test Range (AFWTR). Payloads include a variety of satellites, spacecraft, and rockets equipped with specific instruments for various scientific and technological missions. These include communications satellites like Starlink; space stations such as the ISS; scientific satellites like the Hubble; Earth observation satellites from companies like Planet Labs, Umbra, and HawkEye 360; GPS; miniature CubeSats for education and research; and military/defense satellites.

Loading next visibility...
LEGION 1 details
Identifier
59625, 2024-081A
Orbit
SSO
Last TLE update8 hours ago
Origin
Flag of USMaxar Intel (US)
ManufacturerMaxar Space Inf
MissionOperational spacecraft
Bus & MotorLEGION, Unknown motor
Mass~700 kg wet, 630 kg dry
Launch date (UTC)
2024-05-02 (8 months ago)
Launch vehicle
FALCON 9
Launch site
Air Force Western Test Range (AFWTR)
Object type
Payload
Rocket body
Debris
Shape & HBRUnknown
Radar Cross SectionLarge (>1 m²)

Expand to show TLE details & history

TLE from 8 hours ago
0 LEGION 1
1 59625U 24081A   24356.16137121  .00008633  00000-0  45410-3 0  9991
2 59625  97.5570  66.9206 0005847  42.2028 317.9654 15.15885948 35224
Epoch: 2024-12-21T03:52Z
Definitive object data (Epoch: 2024-12-21T03:52:22.472Z)
Latitude0.00001°
Longitude-81.38954°
Altitude518.376 km
Speed7.606 km/s
True Right ascension04h 27m 40s
True Declination0° 00' 00"
Sunlit
Object was in full shadow at TLE epoch
Visualization TLE readout
Latitude80.37657°
Longitude-132.13434°
Altitude528.708 km
Speed7.607 km/s
Apparent Right ascension23h 32m 42s
Apparent Declination24° 34' 01"
Sunlit
Object is in full shadow
Visualization observer readout
Local Sidereal Time11:11:30
Azimuth354.667° N
Elevation-25.328°
Doppler factor1
Orbital elements
Apogee altitude519.299 km
Perigee altitude511.237 km
Semi-major axis6,893.405 km
Eccentricity0.0005847
Inclination97.557°
RAAN66.9206°
Arg. of periapsis42.2028°
True anomaly317.92051°
Mean anomaly317.9654°
Eccentric anomaly317.94296°
Mean motion3.79221 °/min
BSTAR0.0004541
Orbital period94.93 mins
Loading maneuver chart data...
Loading historical data...
Loading historical data...
Loading historical data...
Loading historical data...
Loading historical data...
Loading historical data...
Loading historical data...
Other satellites on launch #81 in the year 2024 (2024-05-02 UTC)

LEGION 1 Visibility forecast

Observer location: undefined°, undefined

Span
Click to sort rows by Start time (UTC) header in descending order
Start Az.
Max El. time (UTC)
Max El. Az.
Max El.
End time (UTC)
End Az.
5 mins2024-12-21 17:07:45.229Z49.319° ENE2024-12-21 17:09:45.229Z90.062° ESE22.574°2024-12-21 17:12:45.229Z149.164° SSE
5 mins2024-12-22 05:21:45.229Z200.262° SSW2024-12-22 05:23:45.229Z267.358° W35.196°2024-12-22 05:26:45.229Z332.445° NNW
|